Voltar ao catálogo

STARLINK-32337

AtivoComunicaçõesVLEO
NORAD 61643·PAYLOAD·🇺🇸 United States

Lançado Oct 23, 2024 de Cape Canaveral Space Force Station

Loading…

Próximas Passagens (próximas 24 horas)

TLE

AtualizadoSource: CelesTrak SupGP

Época: Sep 15, 2026, 03:31 UTC

1 61643C 24191Y   26258.14701389  .00029253  00000+0  10597-2 0  2585
2 61643  43.0000 164.4746 0001259 277.6126  33.4500 15.27558908    15

Acompanhe STARLINK-32337 em tempo real com AllMySat

Download on the App Store